#timestamp,LO_Frequency,Hit,StdDev 
1575831615.9,286047000.4,N
1575831635.7,286047000.1,N
1575831655.6,286047000.4,N
1575831675.4,286047000.7,N
1575831695.2,286046998.9,N
1575831715.1,286046998.4,N
1575831716.0,286046998.4,N
1575831735.8,286046999.9,N
1575831755.6,286046999.9,N
1575831775.5,286047002.0,N
1575831795.3,286047001.6,N
1575831815.2,286047002.5,N
1575831835.9,286047001.0,N
1575831855.7,286047000.6,N
1575831875.6,286046998.8,N
1575831895.4,286046999.1,N
1575831915.2,286046999.5,N
1575831935.1,286046996.8,N
1575831936.0,286046996.8,N
1575831955.8,286046997.0,N
1575831975.7,286046998.5,N
1575831995.5,286046998.8,N
1575832015.3,286046999.5,N
1575832035.2,286046997.5,N
1575832055.0,286046997.8,N
1575832055.9,286046997.8,N
1575832075.8,286046997.2,N
1575832095.6,286046996.5,N
1575832115.4,286046996.8,N
1575832135.3,286046997.5,N
1575832155.1,286046997.3,N
1575832175.8,286047000.9,N
1575832195.7,286047001.2,N
1575832215.5,286046998.3,N
1575832235.4,286046998.6,N
1575832255.2,286046998.9,N
1575832275.0,286046999.0,N
1575832275.9,286046999.0,N
1575832295.8,286046998.8,N
1575832315.6,286046999.3,N
1575832335.4,286046998.3,N
1575832355.3,286046999.0,N
1575832375.1,286047001.1,N
1575832395.9,286047000.2,N
1575832415.7,286047001.1,N
1575832435.5,286046999.9,N
1575832455.4,286046998.9,N
1575832475.2,286046998.9,N
1575832495.0,286046999.4,N
1575832495.9,286046999.4,N
1575832515.8,286046999.6,N
1575832535.6,286046998.5,N
1575832555.5,286047000.7,N
1575832575.3,286047001.2,N
1575832595.1,286047001.1,N
1575832615.9,286046998.9,N
1575832635.7,286046999.3,N
1575832655.5,286046998.3,N
1575832675.4,286046999.4,N
1575832695.2,286046998.7,N
1575832715.1,286046998.4,N
1575832716.0,286046998.4,N
1575832735.8,286047000.8,N
1575832755.6,286046998.6,N
1575832775.5,286046998.8,N
1575832795.3,286046999.1,N
1575832815.1,286046999.3,N
1575832835.9,286046997.4,N
1575832855.7,286046995.2,Y
1575832875.6,286046998.9,P
1575832895.4,286046998.3,P
1575832915.2,286046999.0,N
1575832935.1,286047000.6,N
1575832936.0,286047000.6,N
1575832955.8,286046998.2,N
1575832975.6,286046999.4,N
1575832995.5,286046998.6,N
1575833015.3,286046999.3,N
1575833035.2,286046999.3,N
1575833055.9,286046998.6,N
1575833075.7,286046998.5,N
1575833095.6,286046998.2,N
1575833115.4,286047001.0,N
1575833135.3,286046998.8,N
1575833155.1,286046998.3,N
1575833156.0,286046998.3,N
1575833175.8,286046998.1,N
1575833195.7,286046998.7,N
1575833215.5,286046999.5,N
1575833235.4,286046996.5,Y
1575833255.2,286046998.5,P
1575833275.0,286046999.9,N
1575833275.9,286046999.9,N
1575833295.8,286047002.1,Y
1575833315.6,286047000.2,P
1575833335.4,286047001.7,P
1575833355.3,286047003.2,P
1575833375.1,286047004.0,N
1575833395.9,286046999.7,N
1575833415.7,286047002.8,N
1575833435.5,286047005.8,Y
1575833455.4,286047002.0,P
1575833475.2,286047000.5,N
1575833495.1,286047001.6,N
1575833496.0,286047001.6,N
1575833515.8,286047000.1,N
1575833535.6,286047000.9,N
1575833555.5,286046999.3,N
1575833575.3,286047002.3,N
1575833595.1,286047002.5,N
1575833615.9,286047000.9,N
1575833635.7,286047000.5,N
1575833655.6,286047000.5,N
1575833675.4,286047000.1,N
1575833695.2,286047002.8,Y
1575833715.1,286047000.6,P
1575833716.0,286047000.6,N
1575833735.8,286047001.2,P
1575833755.6,286047000.2,N
1575833775.5,286047000.5,N
1575833795.3,286046998.1,Y
1575833815.2,286047000.7,P
1575833835.9,286047000.0,P
1575833855.7,286047002.0,P
1575833875.6,286047000.0,N
1575833895.4,286047000.4,N
1575833915.2,286047001.2,N
1575833935.1,286046999.5,N
1575833936.0,286046999.5,N
1575833955.8,286046996.6,Y
1575833975.7,286046998.1,P
1575833995.5,286046999.6,N
1575834015.3,286047000.9,N
1575834035.2,286047000.9,N
1575834055.0,286046998.6,N
1575834055.9,286046998.6,N
1575834075.8,286046998.2,N
1575834095.6,286046999.4,N
1575834115.4,286046996.6,Y
1575834135.3,286046997.4,P
1575834155.1,286046999.5,N
1575834205.9,286047001.1,E
1575834215.8,286047000.0,N
1575834235.6,286047000.9,P
1575834255.5,286046998.4,P
1575834275.3,286046998.9,N
1575834295.1,286046998.4,N
1575834315.9,286047000.4,N
1575834335.7,286046998.4,N
1575834355.6,286046999.3,N
1575834375.4,286047001.0,N
1575834395.2,286047000.6,N
1575834415.1,286047000.4,N
1575834416.0,286047000.4,N
1575834435.8,286047001.0,N
1575834455.6,286046998.2,N
1575834475.5,286046998.4,N
1575834495.3,286047001.1,N
1575834515.2,286047000.8,N
1575834535.9,286047000.4,N
1575834555.7,286047000.5,N
1575834575.6,286047000.0,N
1575834595.4,286047000.5,N
1575834615.2,286047001.0,N
1575834635.1,286047002.5,N
1575834636.0,286047002.5,N
1575834655.8,286047000.1,N
1575834675.7,286047001.3,N
1575834695.5,286047003.9,Y
1575834715.3,286047002.4,P
1575834735.2,286047001.0,N
1575834755.0,286047000.9,N
1575834755.9,286047000.9,N
1575834775.8,286047002.6,Y
1575834795.6,286046998.6,P
1575834815.4,286046998.0,N
1575834835.3,286046996.1,N
1575834855.1,286046995.6,N
1575834875.8,286046995.3,N
1575834895.7,286046995.1,N
1575834915.5,286046997.1,N
1575834935.4,286046995.3,N
1575834955.2,286046996.5,N
1575834975.0,286046999.0,N
1575834975.9,286046999.0,N
1575834995.8,286046999.3,N
1575835015.6,286046999.6,N
1575835035.4,286046998.9,N
1575835055.3,286046996.6,N
1575835075.1,286046997.4,N
1575835095.9,286046997.8,N
1575835115.7,286046995.0,N
1575835135.5,286046997.1,N
1575835155.4,286046999.6,N
1575835175.2,286046995.5,N
1575835195.0,286046999.2,N
1575835195.9,286046999.2,N
